Location: Milton
(43.5183°N, 79.8775°W)
Time: 09:25:02
(UTC+00:00)

COSMOS 2251 DEB - Pass Details

Date: 14 December 2023
Orbit: 708 x 767 km, 74.0° (Epoch: 04 March)

Event Time Altitude Azimuth Distance (km) Brightness Sun altitude
Exits shadow 11:12:47 14° 333° (NNW) 2,022 ? -16.0°
Maximum altitude 11:17:14 68° 253° (WSW) 821 ? -15.2°
Drops below altitude 10° 11:22:25 10° 171° (S) 2,297 ? -14.3°
Sets 11:24:48 0° 169° (S) 3,222 ? -13.9°
